sat.trackr.live / text

‹ back to catalog

2024-153E

NORAD 60749 · 2024-153E

PAYLOAD ACTIVE UNKNOWN

§ Identity

Operator
Country
PRC
Launch date
2024-08-29
Launch site
YSLA
Launch vehicle
Mass (kg)
RCS (m²)

External: N2YO · Heavens-Above · Gunter

§ Orbital elements

Epoch: 2026-09-22T23:16:38.407008Z

Period
94.17 min
Inclination
97.6829°
Eccentricity
0.0000633
Mean motion
15.29116465 rev/d
Perigee alt
478.0 km
Apogee alt
478.9 km
Semi-major
6,856.6 km
B*
4.1571e-4
RAAN
46.2204°
Arg perigee
200.6428°
Mean anomaly
159.4786°
Rev number
11,476

§ Raw data

2024-153E1 60749U 24153E   26265.96988897  .00011676  00000+0  41571-3 0  99972 60749  97.6829  46.2204 0000633 200.6428 159.4786 15.29116465114760

JSON: /api/v1/satellites/60749 · /tle

For live sub-satellite position, see the globe view (requires WebGL).

§ Visibility from observer

Set your observer location to see the next 7 days of passes ≥ 10°. The values pass through the URL so the page stays shareable.

No JS? Fill the form by hand. The geolocation button needs JavaScript.